Tracking 31027 objects as of 19-Jul-2025
HD Live streaming from Space Station
objects crossing your sky now

SL-14 DEB

Track SL-14 DEB now!
10-day predictions


NORAD ID: 45327
Int'l Code: 1991-056BR
Perigee: 1,061.4 km
Apogee: 1,172.8 km
Inclination: 82.6 °
Period: 107.5 minutes
Semi major axis: 7488 km
RCS: Unknown
Launch date: August 15, 1991
Source: Commonwealth of Independent States (former USSR) (CIS)
Launch site: PLESETSK MISSILE AND SPACE COMPLEX (PKMTR)

Note: This is SATELLITE DEBRIS
Your satellite tracking list
SL-12 R/B(AUX MOTOR)
Track 1 satellite(s)




NASA's NSSDC Master Catalog

Two Line Element Set (TLE):
1 45327U 91056BR  25199.36878342  .00000800  00000-0  14272-2 0  9995
2 45327  82.5665 327.9873 0074390   6.5288 353.6798 13.39823192264819
Source of the keplerian elements: AFSPC